EW3393 Weather Reports


Display with metric or nautical units.
time (UTC)temp
F
wind
direction
speed
MPH
gust
MPH
rain 1hr
in
rain 24hr
in
rain mn
in
humidity
%
barometer
mb
20260504172820 65 251 22.0 32.0 0.00 0.00 0.00 40 1011.9
20260504172312 64 265 24.0 32.0 0.00 0.00 0.00 41 1011.9
20260504171826 65 255 23.0 35.0 0.00 0.00 0.00 41 1011.9
20260504171337 64 257 23.0 35.0 0.00 0.00 0.00 42 1012.0
20260504170829 64 261 25.0 33.0 0.00 0.00 0.00 42 1012.0
20260504170325 64 274 26.0 33.0 0.00 0.00 0.00 42 1011.9
20260504160332 61 274 23.0 31.0 0.00 0.00 0.00 46 1011.6
20260504150827 60 291 16.0 25.0 0.00 0.00 0.00 51 1011.6
20260504150317 60 267 12.0 28.0 0.00 0.00 0.00 51 1011.6
20260504141320 60 286 17.0 23.0 0.00 0.00 0.00 52 1011.6
20260504140817 60 255 16.0 23.0 0.00 0.00 0.00 51 1011.6
20260504140328 59 269 15.0 19.0 0.00 0.00 0.00 52 1011.6
20260504130315 59 295 22.0 34.0 0.00 0.00 0.00 54 1011.0
20260504110327 59 280 29.0 38.0 0.00 0.00 0.00 56 1009.9
20260504100324 60 285 25.0 35.0 0.00 0.00 0.00 54 1009.6
20260504081841 60 286 23.0 32.0 0.00 0.00 0.00 51 1011.5
20260504081331 60 291 22.0 35.0 0.00 0.00 0.00 52 1011.7
20260504080822 60 269 23.0 35.0 0.00 0.00 0.00 52 1011.6
20260504080313 60 276 25.0 31.0 0.00 0.00 0.00 52 1011.1
20260504070322 61 284 31.0 41.0 0.00 0.00 0.00 52 1009.9
20260504050330 62 286 28.0 46.0 0.00 0.00 0.00 55 1009.3
20260504045820 62 300 29.0 46.0 0.00 0.00 0.00 55 1009.0
20260504045351 62 293 25.0 41.0 0.00 0.00 0.00 54 1008.9
20260504044823 62 304 29.0 40.0 0.00 0.00 0.00 54 1009.0
20260504044315 62 324 29.0 38.0 0.00 0.00 0.00 54 1008.8
20260504043828 62 271 30.0 42.0 0.00 0.00 0.00 54 1008.8
20260504043324 63 269 30.0 42.0 0.00 0.00 0.00 54 1008.6
20260504042816 63 295 30.0 43.0 0.00 0.00 0.00 54 1008.6
20260504042348 63 300 33.0 45.0 0.00 0.00 0.00 54 1008.6
20260504041820 63 289 34.0 47.0 0.00 0.00 0.00 54 1008.5
20260504041331 63 302 34.0 47.0 0.00 0.00 0.00 54 1008.5
20260504040823 63 291 31.0 44.0 0.00 0.00 0.00 54 1008.6
20260504040315 63 315 31.0 40.0 0.00 0.00 0.00 54 1008.6
20260504035825 64 300 31.0 41.0 0.00 0.00 0.00 54 1008.4
20260504035337 64 297 33.0 49.0 0.00 0.00 0.00 53 1008.1
20260504034851 64 280 31.0 49.0 0.00 0.00 0.00 54 1008.0
20260504034320 64 298 31.0 44.0 0.00 0.00 0.00 53 1008.1
20260504033818 64 312 31.0 40.0 0.00 0.00 0.00 53 1008.2
20260504033328 64 280 30.0 40.0 0.00 0.00 0.00 53 1008.1
20260504032820 65 293 30.0 44.0 0.00 0.00 0.00 53 1008.1
20260504032330 65 261 32.0 44.0 0.00 0.00 0.00 52 1008.1
20260504031822 65 271 29.0 40.0 0.00 0.00 0.00 51 1007.9
20260504031313 66 283 32.0 42.0 0.00 0.00 0.00 50 1007.6
20260504030827 66 282 30.0 42.0 0.00 0.00 0.00 50 1007.5
20260504030318 67 293 31.0 38.0 0.00 0.00 0.00 48 1007.4
20260504025827 67 277 29.0 39.0 0.00 0.00 0.00 49 1007.5
20260504025342 68 279 30.0 39.0 0.00 0.00 0.00 48 1007.3
20260504024813 68 279 29.0 39.0 0.00 0.00 0.00 47 1007.0
20260504024324 69 319 26.0 35.0 0.00 0.00 0.00 45 1007.0
20260504023817 69 282 23.0 34.0 0.00 0.00 0.00 45 1007.0
20260504023349 69 291 23.0 31.0 0.00 0.00 0.00 44 1007.1
20260504022821 70 279 23.0 31.0 0.00 0.00 0.00 43 1007.0
20260504022353 70 275 21.0 30.0 0.00 0.00 0.00 43 1006.9
20260504021845 70 272 22.0 31.0 0.00 0.00 0.00 42 1006.8
20260504021315 71 298 22.0 36.0 0.00 0.00 0.00 42 1006.7
20260504020829 71 256 29.0 36.0 0.00 0.00 0.00 41 1006.6
20260504020341 72 288 26.0 34.0 0.00 0.00 0.00 40 1006.5
20260504015815 72 305 24.0 35.0 0.00 0.00 0.00 40 1006.6
20260504015326 73 296 20.0 34.0 0.00 0.00 0.00 39 1006.6
20260504014819 73 304 23.0 31.0 0.00 0.00 0.00 38 1006.4
20260504014332 73 286 19.0 32.0 0.00 0.00 0.00 37 1006.4
20260504013823 74 269 22.0 35.0 0.00 0.00 0.00 37 1006.3
20260504013315 74 287 22.0 35.0 0.00 0.00 0.00 38 1006.2
20260504012827 74 259 21.0 32.0 0.00 0.00 0.00 37 1006.3
20260504012319 74 278 25.0 36.0 0.00 0.00 0.00 37 1006.3
20260504011814 75 276 29.0 36.0 0.00 0.00 0.00 37 1006.5
20260504011329 75 277 24.0 34.0 0.00 0.00 0.00 36 1006.4
20260504010822 75 273 28.0 34.0 0.00 0.00 0.00 36 1006.4
20260504010314 76 267 25.0 32.0 0.00 0.00 0.00 35 1006.3
20260504005823 76 279 20.0 29.0 0.00 0.00 0.00 36 1006.4
20260504005314 76 270 22.0 33.0 0.00 0.00 0.00 35 1006.5
20260504004826 77 272 21.0 28.0 0.00 0.00 0.00 34 1006.4
20260504004338 77 258 21.0 30.0 0.00 0.00 0.00 33 1006.3
20260504003831 77 267 20.0 30.0 0.00 0.00 0.00 34 1006.3
20260504003322 77 274 22.0 33.0 0.00 0.00 0.00 34 1006.2
20260504002815 77 273 24.0 33.0 0.00 0.00 0.00 34 1006.2
20260504002347 77 254 19.0 27.0 0.00 0.00 0.00 34 1006.3
20260504001823 78 265 21.0 27.0 0.00 0.00 0.00 34 1006.3
20260504001316 78 260 19.0 26.0 0.00 0.00 0.00 32 1006.2
20260504000829 78 253 19.0 32.0 0.00 0.00 0.00 33 1006.1
20260504000341 78 259 20.0 32.0 0.00 0.00 0.00 33 1006.4
20260503235829 78 242 25.0 32.0 0.00 0.00 0.00 33 1006.4
20260503235319 79 254 24.0 32.0 0.00 0.00 0.00 33 1006.5
20260503234833 78 267 24.0 32.0 0.00 0.00 0.00 34 1006.5
20260503234325 78 265 23.0 33.0 0.00 0.00 0.00 34 1006.4
20260503233838 78 266 22.0 33.0 0.00 0.00 0.00 35 1006.4
20260503233314 78 269 27.0 32.0 0.00 0.00 0.00 35 1006.3
20260503232827 78 248 26.0 35.0 0.00 0.00 0.00 35 1006.4
20260503232319 78 287 28.0 35.0 0.00 0.00 0.00 35 1006.2
20260503231832 78 273 27.0 38.0 0.00 0.00 0.00 35 1006.3
20260503231322 77 254 27.0 38.0 0.00 0.00 0.00 36 1006.2
20260503230815 78 256 29.0 36.0 0.00 0.00 0.00 36 1006.2
20260503230347 78 268 28.0 37.0 0.00 0.00 0.00 36 1006.2
20260503225816 78 267 29.0 37.0 0.00 0.00 0.00 36 1006.3
20260503225327 78 254 27.0 38.0 0.00 0.00 0.00 36 1006.3
20260503224825 78 271 30.0 38.0 0.00 0.00 0.00 36 1006.4
20260503224317 78 258 28.0 37.0 0.00 0.00 0.00 36 1006.4
20260503223831 78 281 29.0 38.0 0.00 0.00 0.00 37 1006.4
20260503223322 78 259 28.0 38.0 0.00 0.00 0.00 38 1006.4
20260503222814 77 271 32.0 40.0 0.00 0.00 0.00 38 1006.6
20260503222326 77 259 34.0 40.0 0.00 0.00 0.00 38 1006.6
20260503221818 77 283 29.0 39.0 0.00 0.00 0.00 38 1006.6
20260503221330 79 263 31.0 39.0 0.00 0.00 0.00 36 1006.6
20260503220826 78 282 29.0 40.0 0.00 0.00 0.00 36 1006.5
20260503220317 79 269 32.0 39.0 0.00 0.00 0.00 35 1006.6
20260503215828 79 269 27.0 34.0 0.00 0.00 0.00 34 1006.7
20260503215319 79 275 25.0 35.0 0.00 0.00 0.00 34 1006.7
20260503214813 79 263 25.0 35.0 0.00 0.00 0.00 35 1006.8
20260503214326 79 290 26.0 39.0 0.00 0.00 0.00 34 1006.8
20260503213819 79 281 27.0 39.0 0.00 0.00 0.00 34 1006.7
20260503213332 80 275 30.0 38.0 0.00 0.00 0.00 33 1006.7
20260503212830 80 275 25.0 38.0 0.00 0.00 0.00 33 1006.7
20260503212323 79 266 27.0 38.0 0.00 0.00 0.00 34 1006.9
20260503211817 80 276 27.0 35.0 0.00 0.00 0.00 33 1006.9
20260503211329 80 259 27.0 34.0 0.00 0.00 0.00 33 1007.0
20260503210821 80 252 22.0 34.0 0.00 0.00 0.00 34 1007.1
20260503210313 80 271 25.0 35.0 0.00 0.00 0.00 34 1007.0
20260503205823 80 249 27.0 35.0 0.00 0.00 0.00 34 1007.1
20260503205313 80 259 25.0 33.0 0.00 0.00 0.00 34 1007.1
20260503204827 80 286 25.0 35.0 0.00 0.00 0.00 34 1007.2
20260503204324 80 287 25.0 35.0 0.00 0.00 0.00 33 1007.2
20260503203818 81 276 24.0 33.0 0.00 0.00 0.00 33 1007.2
20260503203330 80 267 25.0 30.0 0.00 0.00 0.00 34 1007.2
20260503202822 80 277 24.0 30.0 0.00 0.00 0.00 34 1007.3
20260503202313 80 283 25.0 30.0 0.00 0.00 0.00 33 1007.3
20260503201828 81 253 23.0 30.0 0.00 0.00 0.00 33 1007.4
20260503201340 81 252 24.0 30.0 0.00 0.00 0.00 32 1007.4
20260503200833 81 269 24.0 30.0 0.00 0.00 0.00 33 1007.4
20260503200330 81 298 25.0 30.0 0.00 0.00 0.00 33 1007.4
20260503195819 81 274 22.0 31.0 0.00 0.00 0.00 34 1007.5
20260503195331 81 261 23.0 29.0 0.00 0.00 0.00 33 1007.6
20260503194824 80 258 20.0 31.0 0.00 0.00 0.00 35 1007.9
20260503194315 80 261 24.0 34.0 0.00 0.00 0.00 33 1007.8
20260503193829 80 252 24.0 34.0 0.00 0.00 0.00 33 1007.9
20260503193320 80 290 23.0 30.0 0.00 0.00 0.00 34 1007.9
20260503192833 80 261 23.0 28.0 0.00 0.00 0.00 34 1008.0
20260503192344 81 261 21.0 29.0 0.00 0.00 0.00 33 1008.0
20260503191821 80 257 20.0 32.0 0.00 0.00 0.00 33 1008.1
20260503191353 80 267 23.0 32.0 0.00 0.00 0.00 33 1008.1
20260503190825 80 287 21.0 29.0 0.00 0.00 0.00 33 1008.2
20260503190317 80 241 22.0 29.0 0.00 0.00 0.00 34 1008.3
20260503185847 80 258 22.0 29.0 0.00 0.00 0.00 33 1008.3
20260503185317 80 271 23.0 28.0 0.00 0.00 0.00 33 1008.3
20260503184830 80 281 21.0 29.0 0.00 0.00 0.00 33 1008.3
20260503184342 80 258 19.0 29.0 0.00 0.00 0.00 32 1008.3
20260503183814 81 265 19.0 25.0 0.00 0.00 0.00 31 1008.3
20260503183325 81 275 17.0 21.0 0.00 0.00 0.00 33 1008.4
20260503182843 81 272 16.0 21.0 0.00 0.00 0.00 33 1008.4
20260503182313 80 265 17.0 24.0 0.00 0.00 0.00 32 1008.5
20260503181824 80 298 19.0 24.0 0.00 0.00 0.00 33 1008.5
20260503181315 80 269 16.0 23.0 0.00 0.00 0.00 34 1008.6
20260503180826 80 269 17.0 23.0 0.00 0.00 0.00 34 1008.6
20260503180336 80 266 16.0 24.0 0.00 0.00 0.00 33 1008.6
20260503175823 79 292 14.0 24.0 0.00 0.00 0.00 34 1008.7
20260503175314 80 265 16.0 21.0 0.00 0.00 0.00 33 1008.6
20260503174827 80 285 16.0 20.0 0.00 0.00 0.00 33 1008.6
20260503174318 79 285 14.0 18.0 0.00 0.00 0.00 33 1008.7
20260503173850 79 270 15.0 20.0 0.00 0.00 0.00 34 1008.6
20260503173324 78 259 15.0 20.0 0.00 0.00 0.00 35 1008.6